Location: Unspecified
(0.0000°N, 0.0000°E)
Time: 08:37:32
(UTC+00:00)

NOSS 2-2 (E) - Pass Details

Date: 24 January 2022
Orbit: 439 x 1762 km, 63.3° (Epoch: 11 May)

Event Time Altitude Azimuth Distance (km) Brightness Sun altitude
Rises 19:17:17 0° 199° (SSW) 3,460 8.0 -15.4°
Reaches altitude 10° 19:20:10 10° 196° (SSW) 2,307 7.0 -16.0°
Maximum altitude 19:25:11 63° 115° (ESE) 680 3.5 -17.2°
Enters shadow 19:26:44 35° 47° (NE) 927 4.0 -17.6°
